Wind_Speed
30 28 29 29 29 30 32 33 34 33 31 27 28 30 30 32 36 38 41 43 45 49 52 54 56 58 59 59 59 59 59 58 57 55 54 52 51 50 49 47 45 43 41 41
31 30 30 30 28 28 29 31 33 33 32 29 30 31 31 32 35 38 41 43 45 48 50 52 54 56 57 58 58 58 58 58 58 56 55 53 52 51 49 48 46 45 43 42
31 30 31 30 26 27 27 28 30 32 31 30 31 31 31 32 36 38 40 41 44 47 49 51 52 55 56 57 57 58 58 58 58 57 56 54 52 51 50 49 47 45 45 44
32 30 30 26 26 27 27 27 28 30 30 30 31 31 32 33 34 37 39 40 43 46 48 49 51 53 55 56 57 56 57 57 57 57 56 54 52 51 51 49 48 46 45 44
30 30 29 24 24 26 27 27 26 27 28 30 31 31 31 32 33 36 38 40 42 45 47 48 50 52 54 55 56 55 55 56 57 56 55 54 52 50 49 48 47 46 45 44
30 31 29 24 23 24 26 27 25 26 26 27 29 30 29 31 33 34 36 38 41 44 46 48 49 50 52 53 54 54 53 54 55 55 55 54 53 51 49 48 47 46 45 44
30 30 28 24 23 23 25 25 26 26 26 26 28 29 29 31 32 33 34 36 40 43 46 47 48 49 50 51 53 53 52 52 54 55 54 54 53 51 50 48 47 46 44 43
28 29 26 25 25 25 25 26 27 26 26 27 27 28 29 31 33 34 34 35 38 43 45 46 47 48 49 50 51 53 52 52 53 54 54 53 51 50 49 48 47 46 44 43
30 28 27 27 28 28 28 27 28 27 27 26 26 28 30 31 34 35 36 35 37 41 43 44 45 47 48 48 49 51 52 51 51 53 53 51 50 49 48 47 46 45 44 42
30 27 27 28 28 29 29 28 28 29 28 27 27 28 29 31 33 35 36 37 37 40 42 43 45 46 47 47 48 49 50 51 50 51 52 51 50 48 47 46 44 44 43 41
30 27 28 27 27 27 27 27 27 28 29 29 28 28 29 31 33 36 37 37 38 39 42 44 45 46 46 47 47 48 49 49 49 49 50 50 49 47 46 45 44 42 40 39
30 29 30 28 29 30 29 28 27 27 28 29 27 27 29 31 33 35 37 37 37 39 42 44 45 46 45 46 47 47 47 48 48 48 49 49 48 47 45 43 42 41 40 38
31 31 31 29 30 31 31 30 29 29 28 28 27 27 29 30 32 34 36 37 37 38 41 42 43 45 46 45 46 48 48 48 47 47 47 46 46 45 44 42 41 40 38 37
31 31 30 30 31 31 32 31 30 29 29 28 27 27 29 30 32 34 35 36 36 37 40 41 42 43 44 44 46 47 48 48 47 46 45 45 44 43 42 40 39 38 37 36
30 31 30 29 30 30 31 30 29 29 30 30 29 28 29 30 31 33 35 36 37 37 39 40 43 44 43 43 44 45 45 46 45 45 45 44 43 42 40 39 38 37 36 35
29 30 29 28 28 29 29 28 28 28 29 30 29 29 29 30 31 32 34 35 36 37 39 40 42 43 43 43 44 44 44 43 43 43 43 43 41 40 39 39 38 36 35 33
27 27 27 27 27 28 28 28 27 27 28 28 28 27 29 31 32 32 33 33 34 36 38 39 40 41 41 40 41 41 41 41 41 41 41 41 40 39 38 38 36 35 33 32
24 23 24 24 24 25 25 25 25 25 25 26 27 27 29 31 32 33 33 33 33 35 36 37 38 39 39 38 38 39 39 40 40 40 40 40 38 37 36 36 34 33 32 31
22 22 22 21 21 21 21 21 22 23 23 24 25 27 28 30 31 32 32 32 33 34 34 34 36 38 37 37 36 37 38 39 39 39 39 38 37 35 35 34 33 32 30 29
20 21 21 21 21 20 20 19 19 20 21 23 24 26 28 29 30 32 32 31 32 33 33 34 35 37 36 35 36 37 38 38 38 38 37 36 34 34 34 33 31 30 29 28
18 18 18 18 18 18 19 18 17 18 19 21 23 25 27 29 30 30 30 30 32 34 34 35 35 36 35 35 35 35 36 37 36 36 35 34 33 33 32 31 30 28 27 27
17 16 16 16 15 16 16 16 15 16 18 20 22 24 26 28 29 30 30 31 32 33 34 35 35 34 33 33 34 34 35 35 35 34 33 32 32 31 30 29 28 28 27 26
15 14 14 14 14 14 14 13 14 15 18 20 22 23 26 27 28 29 30 31 31 32 33 34 34 34 33 32 33 34 34 33 33 32 32 32 31 29 28 27 27 26 25 24
13 12 11 11 11 12 11 11 12 14 16 18 20 23 25 26 28 29 30 31 32 32 33 34 33 32 32 32 32 33 32 32 32 31 31 30 30 28 27 26 26 25 23 21
11 10 10 10 9 9 9 10 11 13 14 16 19 22 24 25 27 29 31 32 33 34 34 34 34 33 32 32 32 32 32 31 30 30 29 28 28 27 25 25 24 23 21 21
10 9 8 7 8 8 8 9 11 12 13 15 17 20 23 25 27 29 31 32 33 34 34 34 34 33 32 32 32 32 31 30 29 29 28 27 27 26 25 24 23 23 22 21
8 7 6 5 6 7 8 9 11 12 14 15 17 19 22 25 28 29 31 32 32 33 33 33 33 33 32 32 31 30 30 29 28 27 26 26 26 26 25 24 23 23 22 22
Wind_Direction
283 280 274 272 269 265 262 261 259 254 251 246 245 242 237 232 229 228 226 224 222 220 219 220 220 220 219 220 219 219 219 221 221 222 223 224 226 228 230 232 233 235 236 239
282 280 276 271 268 268 264 262 260 256 251 248 245 244 241 235 230 227 226 225 222 219 219 220 220 219 219 220 219 219 219 220 221 222 223 224 225 227 230 232 233 235 236 239
282 281 275 270 268 268 266 262 260 257 252 246 246 245 243 238 232 228 226 224 223 220 218 219 219 218 218 219 218 218 219 220 221 223 224 224 226 227 229 231 233 235 237 240
281 279 275 277 270 267 266 262 258 255 251 246 246 246 243 238 233 230 227 225 223 220 218 217 218 218 217 218 218 219 219 220 221 222 223 225 226 227 228 230 233 235 238 240
280 279 278 275 271 270 267 262 258 256 252 249 247 246 243 237 232 228 227 225 223 220 218 216 217 217 217 217 218 219 219 220 220 221 223 224 226 228 229 231 232 234 237 239
279 279 278 276 272 270 267 263 256 256 254 249 244 243 240 236 231 226 224 223 222 220 219 217 217 218 217 217 218 219 219 219 219 220 223 224 226 228 229 230 232 234 237 240
277 277 277 274 270 268 265 263 257 257 256 250 244 243 240 236 230 224 221 220 219 218 218 217 217 218 218 217 218 218 219 219 219 220 222 224 226 228 230 231 232 234 236 240
273 274 276 271 269 266 266 263 260 259 257 251 245 242 238 235 232 227 222 221 219 218 218 218 218 219 218 218 218 218 219 219 219 220 221 223 225 227 230 233 234 235 236 240
270 271 271 270 267 266 265 264 262 261 258 253 246 240 236 234 231 229 226 224 220 217 217 218 218 218 217 217 218 218 219 219 219 220 221 223 225 227 230 232 234 236 238 239
270 270 269 267 265 265 266 264 262 261 260 255 247 239 235 233 231 230 227 224 220 218 218 217 218 217 217 217 217 218 218 219 220 221 222 223 224 226 228 230 233 236 238 239
271 270 264 261 261 263 265 264 263 261 259 256 250 242 236 232 228 228 226 221 219 218 217 217 217 217 216 216 217 218 218 219 219 220 221 223 224 225 226 228 232 234 235 238
270 268 266 262 260 262 264 264 264 262 259 256 250 241 235 230 226 226 224 222 219 218 217 216 216 216 215 216 217 218 218 219 219 220 222 223 223 224 225 227 230 232 234 236
270 268 268 264 261 262 262 262 263 261 258 253 247 239 234 230 227 225 222 221 219 217 215 214 213 214 214 214 216 217 218 218 219 219 220 221 222 223 225 227 228 230 232 235
270 270 268 265 263 261 260 261 260 259 256 251 245 238 233 229 226 222 220 219 217 214 213 213 213 213 213 214 215 215 216 217 218 218 219 220 220 222 223 224 226 228 231 234
272 271 270 265 262 261 260 259 259 257 255 251 246 239 231 226 223 220 218 218 216 213 211 211 213 212 212 212 213 214 216 217 217 218 218 219 219 220 220 222 224 227 231 234
274 272 270 266 263 261 261 260 258 256 252 248 244 238 230 223 219 217 216 215 213 210 209 210 210 210 209 210 211 213 214 215 217 218 219 217 218 220 221 223 226 228 231 234
279 274 270 267 266 263 262 260 258 254 249 245 239 233 225 220 217 214 212 212 210 208 207 208 208 208 208 210 211 212 214 214 215 216 216 217 218 220 221 223 226 228 231 235
282 277 272 270 267 265 263 261 258 254 248 241 235 227 220 217 215 215 213 211 207 205 205 206 206 208 209 209 209 210 211 211 212 213 213 214 215 217 220 221 223 227 231 235
282 277 273 270 269 268 266 261 256 251 246 239 232 223 216 213 211 210 208 207 204 200 200 202 203 203 205 206 208 209 208 208 209 210 211 213 214 216 218 220 224 228 233 235
283 277 272 271 270 269 266 259 254 248 242 235 228 220 214 210 207 206 205 202 201 199 199 200 201 202 204 206 207 206 206 207 208 209 210 212 214 216 218 221 224 228 230 234
286 278 273 272 271 269 265 259 252 244 235 228 222 215 211 208 204 203 202 201 200 200 200 200 200 201 202 202 202 203 204 205 205 207 209 210 213 216 219 221 222 225 229 234
283 275 273 272 270 267 264 258 246 234 227 222 216 212 209 207 203 201 199 197 197 198 199 199 199 198 199 199 200 201 202 203 204 204 206 208 212 215 217 219 221 223 228 233
282 276 274 272 268 263 259 251 238 227 220 216 213 209 205 203 202 199 196 195 195 195 196 196 197 197 197 197 197 198 199 200 202 204 206 208 210 212 216 218 221 225 230 233
280 277 276 272 266 260 252 243 231 221 214 209 205 202 201 200 199 195 194 193 193 193 193 193 194 195 195 195 196 196 197 199 201 203 204 205 207 211 215 218 220 222 225 230
280 278 274 266 258 249 238 226 217 208 200 197 197 195 196 196 195 193 191 190 190 191 193 193 194 194 195 195 195 195 196 198 200 202 203 205 208 211 214 215 218 220 225 229
274 273 269 259 246 233 222 211 202 197 193 191 191 191 191 190 190 189 189 189 189 191 193 192 192 193 193 194 193 194 194 195 197 200 203 206 207 209 211 214 218 222 226 230
267 265 260 249 230 212 201 196 193 190 188 186 185 185 184 184 184 184 185 186 186 189 191 191 192 191 191 192 193 193 194 196 198 200 204 206 207 209 213 216 220 224 227 230
Height
5462 5461 5459 5459 5459 5459 5458 5459 5459 5463 5465 5469 5472 5474 5477 5481 5485 5490 5496 5503 5509 5517 5525 5534 5543 5553 5562 5572 5581 5591 5601 5611 5620 5628 5636 5644 5651 5657 5664 5669 5675 5680 5684 5688
5454 5454 5451 5450 5452 5452 5451 5451 5452 5454 5458 5462 5463 5466 5469 5473 5476 5481 5487 5493 5500 5508 5516 5524 5533 5543 5552 5562 5571 5581 5590 5600 5610 5618 5626 5634 5641 5648 5654 5660 5666 5671 5675 5679
5445 5446 5443 5443 5446 5445 5444 5445 5445 5446 5451 5452 5454 5458 5461 5464 5467 5472 5478 5484 5491 5499 5507 5515 5524 5533 5542 5552 5561 5571 5580 5590 5599 5607 5616 5624 5631 5638 5645 5651 5656 5662 5666 5671
5437 5437 5435 5440 5439 5438 5437 5437 5438 5438 5441 5443 5446 5449 5452 5456 5459 5464 5470 5475 5482 5490 5498 5506 5515 5524 5533 5542 5551 5561 5570 5580 5589 5597 5606 5614 5621 5628 5635 5641 5647 5652 5657 5662
5430 5427 5427 5432 5431 5430 5429 5430 5431 5431 5433 5436 5438 5440 5445 5448 5451 5456 5461 5467 5473 5481 5489 5497 5506 5514 5523 5532 5541 5551 5560 5570 5579 5588 5596 5604 5611 5618 5625 5631 5638 5643 5648 5652
5423 5420 5420 5425 5424 5422 5422 5423 5426 5425 5426 5427 5429 5432 5437 5440 5443 5448 5453 5459 5466 5473 5481 5489 5497 5505 5514 5523 5532 5542 5551 5560 5569 5578 5587 5595 5602 5609 5616 5622 5628 5634 5639 5643
5416 5413 5414 5417 5416 5416 5417 5418 5418 5417 5419 5420 5422 5425 5429 5432 5436 5441 5446 5452 5458 5465 5473 5481 5489 5497 5506 5515 5524 5533 5542 5551 5560 5569 5577 5585 5593 5600 5606 5613 5619 5625 5630 5634
5409 5407 5411 5410 5408 5409 5409 5409 5409 5410 5411 5412 5414 5418 5421 5425 5429 5434 5439 5445 5451 5458 5466 5473 5481 5489 5498 5506 5515 5524 5533 5542 5551 5560 5568 5576 5583 5590 5597 5603 5610 5616 5621 5626
5402 5403 5403 5401 5400 5400 5400 5401 5402 5402 5404 5405 5407 5410 5414 5418 5422 5427 5432 5438 5444 5451 5458 5466 5473 5481 5490 5498 5506 5515 5523 5532 5541 5550 5558 5566 5574 5581 5588 5595 5601 5607 5612 5617
5393 5394 5394 5393 5392 5392 5393 5393 5394 5395 5396 5398 5400 5403 5406 5410 5414 5419 5425 5430 5437 5443 5450 5458 5465 5473 5481 5490 5498 5506 5515 5524 5532 5541 5549 5557 5565 5573 5580 5586 5592 5598 5604 5609
5384 5386 5385 5386 5385 5385 5385 5386 5386 5387 5388 5390 5392 5395 5398 5402 5406 5411 5416 5422 5429 5435 5443 5450 5458 5466 5474 5482 5490 5498 5507 5516 5524 5532 5541 5549 5557 5565 5572 5579 5584 5590 5596 5601
5376 5377 5376 5378 5378 5377 5378 5378 5378 5379 5380 5381 5383 5386 5389 5393 5398 5403 5408 5415 5421 5428 5435 5442 5450 5458 5466 5474 5482 5491 5499 5508 5516 5524 5532 5540 5548 5556 5563 5570 5576 5582 5587 5592
5367 5367 5367 5368 5368 5368 5369 5370 5370 5370 5372 5373 5375 5378 5381 5385 5390 5395 5401 5407 5413 5420 5427 5434 5442 5450 5458 5466 5475 5483 5492 5500 5508 5516 5525 5533 5540 5548 5555 5561 5567 5573 5579 5584
5358 5357 5358 5359 5359 5359 5359 5360 5361 5362 5363 5365 5367 5370 5373 5377 5382 5387 5393 5399 5405 5412 5419 5427 5435 5443 5451 5459 5467 5475 5484 5492 5500 5508 5517 5525 5533 5540 5547 5554 5560 5566 5571 5576
5349 5348 5348 5349 5349 5350 5350 5351 5352 5353 5354 5356 5358 5361 5365 5370 5374 5380 5386 5392 5398 5405 5412 5420 5428 5436 5444 5451 5459 5468 5476 5485 5493 5501 5509 5517 5525 5532 5539 5546 5552 5558 5564 5569
5341 5340 5339 5339 5340 5341 5341 5342 5343 5344 5345 5347 5350 5353 5357 5362 5367 5372 5378 5384 5391 5398 5405 5413 5421 5429 5437 5445 5453 5461 5470 5478 5486 5494 5502 5510 5518 5525 5532 5539 5545 5551 5557 5562
5332 5332 5331 5331 5331 5332 5332 5333 5334 5335 5337 5339 5342 5345 5350 5355 5360 5366 5372 5378 5384 5392 5399 5406 5414 5422 5430 5438 5447 5455 5463 5471 5479 5487 5495 5503 5511 5518 5525 5532 5538 5544 5550 5555
5324 5323 5323 5323 5323 5323 5324 5324 5325 5327 5329 5332 5335 5338 5343 5348 5354 5360 5365 5372 5378 5386 5394 5401 5409 5416 5424 5432 5440 5448 5456 5464 5473 5481 5489 5497 5504 5511 5518 5525 5531 5537 5542 5547
5317 5316 5316 5315 5316 5316 5316 5317 5318 5320 5322 5324 5328 5332 5337 5342 5347 5353 5359 5366 5373 5381 5389 5396 5403 5411 5419 5427 5434 5442 5450 5458 5467 5475 5483 5491 5498 5505 5512 5519 5525 5531 5536 5540
5311 5310 5309 5309 5309 5309 5310 5311 5312 5313 5315 5318 5321 5326 5331 5336 5342 5348 5355 5361 5368 5376 5384 5391 5399 5407 5414 5421 5429 5436 5445 5453 5462 5470 5478 5485 5493 5500 5506 5513 5519 5524 5529 5533
5306 5304 5304 5303 5303 5303 5304 5305 5306 5307 5309 5312 5316 5321 5326 5331 5338 5344 5350 5357 5364 5371 5379 5387 5394 5402 5410 5417 5424 5432 5440 5449 5457 5465 5473 5480 5488 5494 5501 5507 5512 5518 5522 5527
5301 5299 5299 5298 5298 5299 5299 5300 5301 5302 5305 5308 5312 5316 5321 5327 5333 5340 5347 5354 5361 5367 5375 5383 5391 5399 5406 5413 5421 5429 5437 5444 5453 5461 5468 5476 5483 5489 5495 5501 5507 5512 5516 5521
5296 5295 5295 5294 5295 5295 5295 5296 5297 5299 5301 5304 5308 5313 5318 5324 5330 5337 5344 5351 5357 5365 5372 5380 5388 5396 5403 5410 5418 5426 5433 5441 5449 5457 5464 5471 5478 5484 5490 5496 5501 5506 5511 5515
5293 5292 5291 5291 5291 5291 5291 5292 5294 5296 5298 5301 5305 5310 5315 5321 5327 5334 5340 5348 5355 5363 5370 5378 5386 5394 5401 5408 5416 5423 5431 5439 5446 5453 5460 5467 5474 5480 5485 5490 5495 5500 5505 5509
5290 5289 5289 5288 5288 5288 5289 5290 5292 5294 5296 5299 5303 5308 5313 5318 5324 5331 5338 5345 5353 5361 5369 5377 5385 5392 5400 5407 5414 5422 5429 5436 5443 5450 5457 5463 5470 5475 5480 5485 5490 5495 5499 5503
5287 5287 5286 5286 5286 5287 5288 5289 5291 5293 5295 5298 5302 5306 5311 5316 5323 5329 5337 5344 5351 5359 5367 5375 5383 5391 5398 5406 5413 5420 5427 5434 5441 5447 5454 5460 5466 5471 5476 5481 5486 5490 5494 5498
5285 5285 5285 5285 5285 5286 5287 5289 5291 5293 5296 5298 5302 5306 5310 5316 5322 5329 5336 5343 5350 5358 5366 5374 5382 5390 5397 5405 5411 5418 5425 5432 5438 5445 5451 5457 5462 5468 5473 5477 5482 5486 5489 5493